Weather History for KVBS - February, 2014

Change the Weather History Date:

Wednesday, February 19, 2014

  Actual Average Record
Temperature  
Mean Temperature 62 °F -  
Max Temperature 64 °F - - ()
Min Temperature 59 °F - - ()
Degree Days  
Heating Degree Days 4    
Growing Degree Days 12 (Base 50)    
Moisture  
Dew Point 63 °F    
Average Humidity 99    
Maximum Humidity 100    
Minimum Humidity 94    
Precipitation  
Precipitation 0.00 in - - ()
Sea Level Pressure  
Sea Level Pressure 29.96 in    
Wind  
Wind Speed 8 mph (SSW)    
Max Wind Speed 18 mph    
Max Gust Speed 23 mph    
Visibility 2 miles    
Events Fog    
T = Trace of Precipitation, MM = Missing Value Source: NWS Daily Summary

Daily Weather History Graph

Daily Weather History Graph

Search for Another Location

Airport or City:

Trip Planner

Search our weather history database for the weather conditions in past years. The results will help you decide how hot, cold, wet, or windy it might be!

Date:

Astronomy

Feb. 19, 2014 Rise Set
Actual Time 6:50 AM CST 6:06 PM CST
Civil Twilight 6:25 AM CST 6:31 PM CST
Nautical Twilight 5:58 AM CST 6:58 PM CST
Astronomical Twilight 5:30 AM CST 7:26 PM CST
Moon 10:35 PM CST (2/19) 9:19 AM CST (2/19)
Length of Visible Light 12h 05m
Length of Day
11h 16m
Waning Gibbous, 79% of the Moon is Illuminated
Feb 19
Waning Gibbous
Feb 22
Last Quarter
Mar 1
New
Mar 8
First Quarter
Mar 16
Full

Hourly Weather History & Observations

Time (CST) Temp. Dew Point Humidity Pressure Visibility Wind Dir Wind Speed Gust Speed Precip Events Conditions
12:15 AM 62.6 °F 62.6 °F 100% 30.00 in 0.8 mi Variable 6.9 mph 13.8 mph N/A   Overcast
12:35 AM 62.6 °F 62.6 °F 100% 30.01 in 0.2 mi SW 9.2 mph - N/A Fog Fog
12:55 AM 62.6 °F 62.6 °F 100% 30.00 in 0.2 mi Variable 6.9 mph 15.0 mph N/A Fog Fog
1:15 AM 62.6 °F 62.6 °F 100% 30.00 in 0.2 mi SW 9.2 mph 16.1 mph N/A Fog Fog
1:35 AM 64.4 °F 64.4 °F 100% 29.98 in 0.2 mi SW 10.4 mph - N/A Fog Fog
1:55 AM 62.6 °F 62.6 °F 100% 29.98 in 0.2 mi Variable 6.9 mph 17.3 mph N/A Fog Fog
2:15 AM 62.6 °F 62.6 °F 100% 29.98 in 0.2 mi Variable 5.8 mph 17.3 mph N/A Fog Fog
2:35 AM 62.6 °F 62.6 °F 100% 29.98 in 0.2 mi Variable 5.8 mph - N/A Fog Fog
2:55 AM 62.6 °F 62.6 °F 100% 29.98 in - Variable 4.6 mph - N/A   Overcast
3:15 AM 62.6 °F 62.6 °F 100% 29.98 in 0.2 mi Variable 3.5 mph 11.5 mph N/A Fog Fog
3:35 AM 62.6 °F 62.6 °F 100% 29.98 in 0.2 mi Calm Calm - N/A Fog Fog
3:55 AM 62.6 °F 62.6 °F 100% 29.98 in 0.2 mi Calm Calm - N/A Fog Fog
4:15 AM 62.6 °F 62.6 °F 100% 29.99 in 0.2 mi Variable 4.6 mph - N/A Fog Fog
4:35 AM 62.6 °F 62.6 °F 100% 29.99 in 0.2 mi SSW 5.8 mph - N/A Fog Fog
4:55 AM 62.6 °F 62.6 °F 100% 29.99 in 0.2 mi SSW 4.6 mph - N/A Fog Fog
5:15 AM 60.8 °F 60.8 °F 100% 29.99 in 0.2 mi Variable 4.6 mph - N/A Fog Fog
5:35 AM 60.8 °F 60.8 °F 100% 30.00 in 0.2 mi Calm Calm - N/A Fog Fog
5:55 AM 60.8 °F 60.8 °F 100% 30.00 in 0.2 mi Calm Calm - N/A Fog Fog
6:15 AM 62.6 °F 62.6 °F 100% 30.01 in 0.2 mi Variable 3.5 mph - N/A Fog Fog
6:35 AM 62.6 °F 62.6 °F 100% 30.01 in 0.2 mi Calm Calm - N/A Fog Fog
6:55 AM 62.6 °F 62.6 °F 100% 30.01 in 0.2 mi Calm Calm - N/A Fog Fog
7:15 AM 62.6 °F 62.6 °F 100% 30.01 in 0.2 mi Calm Calm - N/A Fog Fog
7:35 AM 62.6 °F 62.6 °F 100% 30.01 in 0.2 mi Variable 3.5 mph - N/A Fog Fog
7:55 AM 64.4 °F 64.4 °F 100% 30.01 in 0.2 mi Variable 5.8 mph - N/A Fog Fog
8:15 AM 62.6 °F 62.6 °F 100% 30.01 in 0.2 mi Variable 5.8 mph 11.5 mph N/A Fog Fog
8:35 AM 62.6 °F 62.6 °F 100% 30.02 in 0.2 mi South 8.1 mph - N/A Fog Fog
8:55 AM 64.4 °F 64.4 °F 100% 30.02 in 0.2 mi Variable 4.6 mph 12.7 mph N/A Fog Fog
9:15 AM 64.4 °F 64.4 °F 100% 30.02 in 0.2 mi Variable 6.9 mph - N/A Fog Fog
9:35 AM 62.6 °F 62.6 °F 100% 30.02 in 0.2 mi South 12.7 mph - N/A Fog Fog
9:55 AM 62.6 °F 62.6 °F 100% 30.03 in 0.2 mi South 11.5 mph - N/A Fog Fog
10:15 AM 62.6 °F 62.6 °F 100% 30.02 in 0.2 mi South 11.5 mph - N/A Fog Fog
10:35 AM 60.8 °F 60.8 °F 100% 30.02 in 0.2 mi South 11.5 mph - N/A Fog Fog
10:55 AM 59.0 °F 59.0 °F 100% 30.02 in 0.2 mi South 11.5 mph - N/A Fog Fog
11:15 AM 60.8 °F 60.8 °F 100% 30.01 in 0.2 mi South 12.7 mph - N/A Fog Fog
11:35 AM 62.6 °F 62.6 °F 100% 29.99 in 0.2 mi SSW 8.1 mph 15.0 mph N/A Fog Fog
11:55 AM 62.6 °F 62.6 °F 100% 29.99 in 2.0 mi SSW 10.4 mph 16.1 mph N/A   Clear
12:15 PM 62.6 °F 62.6 °F 100% 29.98 in 10.0 mi Variable 4.6 mph 13.8 mph N/A   Clear
12:35 PM 64.4 °F 64.4 °F 100% 29.96 in 10.0 mi Variable 5.8 mph 13.8 mph N/A   Clear
12:55 PM 64.4 °F 64.4 °F 100% 29.96 in 10.0 mi SSW 8.1 mph 19.6 mph N/A   Clear
1:15 PM 64.4 °F 64.4 °F 100% 29.95 in 10.0 mi Variable 6.9 mph 16.1 mph N/A   Clear
1:35 PM 64.4 °F 64.4 °F 100% 29.94 in 10.0 mi SW 8.1 mph 15.0 mph N/A   Clear
1:55 PM 64.4 °F 62.6 °F 94% 29.94 in 10.0 mi SSW 8.1 mph 13.8 mph N/A   Clear
2:15 PM 64.4 °F 62.6 °F 94% 29.94 in 10.0 mi SW 9.2 mph 15.0 mph N/A   Clear
2:35 PM 64.4 °F 62.6 °F 94% 29.94 in 10.0 mi Variable 6.9 mph 15.0 mph N/A   Clear
2:55 PM 64.4 °F 62.6 °F 94% 29.93 in 10.0 mi SW 8.1 mph - N/A   Clear
3:15 PM 64.4 °F 62.6 °F 94% 29.93 in 10.0 mi SSW 9.2 mph 15.0 mph N/A   Clear
3:35 PM 64.4 °F 62.6 °F 94% 29.93 in 10.0 mi SSW 11.5 mph 17.3 mph N/A   Clear
3:55 PM 64.4 °F 62.6 °F 94% 29.92 in 2.0 mi SSW 10.4 mph 17.3 mph N/A   Clear
4:15 PM 64.4 °F 62.6 °F 94% 29.92 in 1.0 mi SSW 12.7 mph - N/A   Clear
4:35 PM 64.4 °F 62.6 °F 94% 29.91 in 0.2 mi SSW 11.5 mph 18.4 mph N/A Fog Fog
4:55 PM 62.6 °F 62.6 °F 100% 29.91 in 0.2 mi SSW 12.7 mph 18.4 mph N/A Fog Fog
5:15 PM 62.6 °F 62.6 °F 100% 29.91 in 0.2 mi SSW 9.2 mph 17.3 mph N/A Fog Fog
5:35 PM 62.6 °F 62.6 °F 100% 29.91 in 0.2 mi SSW 12.7 mph - N/A Fog Fog
5:55 PM 62.6 °F 62.6 °F 100% 29.91 in 0.2 mi SSW 10.4 mph - N/A Fog Fog
6:15 PM 60.8 °F 60.8 °F 100% 29.90 in 0.2 mi South 12.7 mph - N/A Fog Fog
6:35 PM 60.8 °F 60.8 °F 100% 29.90 in 0.2 mi South 13.8 mph - N/A Fog Fog
6:55 PM 60.8 °F 60.8 °F 100% 29.90 in 0.2 mi South 15.0 mph - N/A Fog Fog
7:15 PM 60.8 °F 60.8 °F 100% 29.89 in 0.2 mi South 16.1 mph - N/A Fog Fog
7:35 PM 62.6 °F 62.6 °F 100% 29.89 in 0.2 mi South 17.3 mph - N/A Fog Fog
7:55 PM 62.6 °F 62.6 °F 100% 29.90 in 0.2 mi South 17.3 mph - N/A Fog Fog
8:15 PM 62.6 °F 62.6 °F 100% 29.90 in 0.2 mi South 18.4 mph - N/A Fog Fog
8:35 PM 62.6 °F 62.6 °F 100% 29.90 in 0.2 mi South 17.3 mph - N/A Fog Fog
8:55 PM 62.6 °F 62.6 °F 100% 29.90 in 0.2 mi South 16.1 mph 21.9 mph N/A Fog Fog
9:15 PM 62.6 °F 62.6 °F 100% 29.89 in 0.2 mi South 17.3 mph - N/A Fog Fog
9:35 PM 62.6 °F 62.6 °F 100% 29.89 in 0.2 mi South 16.1 mph 23.0 mph N/A Fog Fog
9:55 PM 62.6 °F 62.6 °F 100% 29.89 in 0.2 mi SSW 11.5 mph 18.4 mph N/A Fog Fog
10:15 PM 62.6 °F 62.6 °F 100% 29.88 in 0.2 mi SSW 11.5 mph 21.9 mph N/A Fog Fog
10:35 PM 62.6 °F 62.6 °F 100% 29.88 in 0.2 mi South 10.4 mph 17.3 mph N/A Fog Fog
10:55 PM 62.6 °F 62.6 °F 100% 29.87 in 0.2 mi SSW 16.1 mph 21.9 mph N/A Fog Fog
11:15 PM 62.6 °F 62.6 °F 100% 29.87 in 0.2 mi SSW 13.8 mph 20.7 mph N/A Fog Fog
11:35 PM 62.6 °F 62.6 °F 100% 29.87 in 0.2 mi SSW 10.4 mph 19.6 mph N/A Fog Fog
11:55 PM 62.6 °F 62.6 °F 100% 29.87 in 0.2 mi SSW 12.7 mph 19.6 mph N/A Fog Fog